Airfield :
LOGIN :

Register | Disclaimer

   EN    FR    IT 

 










Legend :    VFR   Marginal VFR   IFR   Intensive IFR   Very Intensive IFR
Visi :
Ceiling :
>= 8 km
>= 3000ft
5 to 8 km
1000 to 3000 ft
1500m to 5 km
500 to 1000 ft
800 to 1500m
200 to 500 ft
< 800m
< 200 ft
Symbols :   Thunderstorms  Fog  Heavy snow  Heavy precipitations  Wind > 20 kt
SIGMETs :     Misc.  Thunderstorms  Icing  Turbulence  Mountain Waves  Volcanic Ashes







- Airport Elevation : 308 ft
- IATA code : POZ


EPPO - Poznan-Lawica

CURRENT METAR :
  • 251200Z 32017KT 9999 FEW049CB 11/06 Q1002

EXPIRED METARs :
  • 251130Z 25016KT CAVOK 15/03 Q1002
  • 251100Z 26014KT CAVOK 15/02 Q1001
  • 251030Z 25013KT CAVOK 15/02 Q1001
  • 251000Z 25013KT CAVOK 15/02 Q1001
  • 250930Z 22013KT CAVOK 14/02 Q1001

TAF TAF EPPO
Valid from the 25 at 12:00 until the 26 at 12:00 UTC


251130Z 2512/2612 25011KT CAVOK
PROB40
TEMPO 2512/2516 25016G30KT SHRA BKN033CB
BECMG 2522/2601 VRB02KT
No reported NOTAMs for that airfield.



MET'MAP, your aeronautical weather chart ! - Copyright ORBIFLY December 2007 - Disclaimer

ORBIFLY MET'MAP TEAM :

Programming & Development : Alexandra Zaïnal
Concept & Development : Baudouin d'Aumeries
Co-Development & Prog : Marc-Olivier Méhu
Technical & hardware support : Manuel Goepfert

Contact : metmap@orbifly.com




SOURCES & CREDITS :

   NOAA